Tracking 18987 objects as of 25-Feb-2018
HD Live streaming from Space Station
objects crossing your sky now

NOAA 16 DEB

Track NOAA 16 DEB now!
10-day predictions


NORAD ID: 41061
Int'l Code: 2000-055U
Perigee: 832.0 km
Apogee: 862.3 km
Inclination: 98.9 °
Period: 101.7 minutes
Semi major axis: 7218 km
RCS: Unknown
Launch date: September 21, 2000
Source: United States (US)
Launch site: AIR FORCE WESTERN TEST RANGE (AFWTR)

Note: This is SATELLITE DEBRIS
aabbcc
Your satellite tracking list
Your tracking list is empty




NASA's NSSDC Master Catalog

Two Line Element Set (TLE):
1 41061U 00055U   18055.86372533 +.00000079 +00000-0 +63098-4 0  9994
2 41061 098.8630 135.6190 0020960 330.0920 029.9055 14.15678470116312
Source of the keplerian elements: AFSPC